sat.trackr.live / text

‹ back to catalog

IHI-SAT2

NORAD 66772 · 2025-276DL

PAYLOAD ACTIVE UNKNOWN

§ Identity

Operator
Country
JPN
Launch date
2025-11-28
Launch site
AFWTR
Launch vehicle
Mass (kg)
RCS (m²)

External: N2YO · Heavens-Above · Gunter

§ Orbital elements

Epoch: 2026-05-25T03:02:47.233248Z

Period
94.67 min
Inclination
97.4239°
Eccentricity
0.0000428
Mean motion
15.21101869 rev/d
Perigee alt
502.2 km
Apogee alt
502.8 km
Semi-major
6,880.7 km
B*
2.6968e-4
RAAN
219.5014°
Arg perigee
57.4198°
Mean anomaly
302.7079°
Rev number
2,694

§ Raw data

IHI-SAT21 66772U 25276DL  26145.12693557  .00005929  00000+0  26968-3 0  99942 66772  97.4239 219.5014 0000428  57.4198 302.7079 15.21101869 26947

JSON: /api/v1/satellites/66772 · /tle

For live sub-satellite position, see the globe view (requires WebGL).

§ Visibility from observer

Set your observer location to see the next 7 days of passes ≥ 10°. The values pass through the URL so the page stays shareable.

No JS? Fill the form by hand. The geolocation button needs JavaScript.

§ Radio — SatNOGS DB

ModeDescriptionDownlinkUplink
FM Mode S - Transmitter 2.283 GHz
FM Mode U - Transmitter 401.050 MHz
FM Mode X - Transmitter 8.200 GHz

3 transmitters · refreshed weekly from db.satnogs.org